Starlink 30235

operational
NORAD ID: 57294 Int'l Des: 2023-096 Owner: SPXS Country: US Constellation: starlink
LEOCIRCULAR

Über Starlink 30235

Beschreibung wird geladen...

Live-Position

3D-Globus wird geladen...

Nächste Überflüge

Höhenverlauf

Altitude vs Time

uPlot chart will show altitude changes over time

Zweizeiliger Elementsatz

1 57294U 23096E 25353.84112675 -.00003116 00000-0 -21571-3 0 9991
2 57294 43.0022 297.2524 0000941 261.6630 98.4105 15.02541086135603
Epoch: 19. Dez. 2025 • Age: 12 hours

Aktueller Status

Höhe 558.3 km
Geschwindigkeit 7.59 km/s
Subsatellitenpunkt 14.57°N, 111.55°W
Startdatum 10. Juli 2023
Alter 2.4 years
Typ internet

Technische Details

Klassifizierung Payload
Masse 730.00 kg
Trockenmasse 700.00 kg
Gesamtmasse 730.00 kg
Länge 0.30 m
Durchmesser 4.10 m
Spannweite 29.00 m
Form Box + pan
Hersteller SPXS
Bus-Typ Starlink V2M
Phasenstatus In Orbit
Besitzer/Staat SPXS/US

Große Konstellationen

Loading constellations...